Showing default

COSMOS 2417 (GLONASS), 28917

Orbit data source: Space-Track

COSMOS 2417 (GLONASS), 28917 is a Commonwealth of Independent States-origin payload satellite in MEO that was launched on Sun, 25 Dec 2005 UTC via a PROTON-K/DM-2 launch vehicle from the Tyuratam Missile And Space Complex (TTMTR). Payload-class satellites include a variety of spacecraft equipped with specific instruments for various scientific and technological missions. These include communications satellites like Starlink; space stations such as the ISS; scientific satellites like the Hubble; Earth observation satellites from companies like Planet Labs, Umbra, and HawkEye 360; GPS; miniature CubeSats for education and research; and military/defense satellites.

Loading next visibility...
Identifier
28917, 2005-050C
Orbit
MEO
Country
Flag of CISCIS
Related business
Manufacturer
NPO PM
Mission
Non-operational Defense Navigation
Bus & Motor
URAGAN, Unknown motor
Mass
1,450 kg wet, ~1,200 kg dry
Launch date (UTC)
2005-12-25 (20 years ago)
Launch vehicle
PROTON-K/DM-2
Launch site
Tyuratam Missile And Space Complex (TTMTR)
Object type
Payload
Rocket body
Debris
Shape & HBR
Cyl + 1 Arm + 2 Pan, 3.9 m
Radar Cross Section
8.145 m², Large (>1 m²)

Expand to show TLE details & history
Last TLE update: 2 days ago

TLE from 2 days ago
0 COSMOS 2417 (GLONASS)
1 28917U 05050C   25259.49030042 -.00000059  00000-0  00000-0 0  9997
2 28917  65.7224 325.3428 0013732 103.8447 250.0259  2.13103867153390
Epoch: 2025-09-16T11:46Z
TLE epoch observation values (Epoch: 2025-09-16T11:46:01.956Z)
Latitude
-5.78787°
Longitude
150.54918°
Altitude
19,143.293 km
Speed
3.951 km/s
True Right ascension
21h 30m 56s
True Declination
-5° 46' 42"
Sunlit
Object was in daylight at epoch
Visualization orbit readout
Latitude
Unknown
Longitude
Unknown
Altitude
Unknown
Speed
Unknown
Apparent Right ascension
Unknown
Apparent Declination
Unknown
Sunlit
N/A
Visualization observer readout
Local Sidereal Time
20:37:15
Azimuth
Unknown
Elevation
Unknown
Doppler factor
Unknown
Orbital elements
Apogee altitude
19,164.355 km
Perigee altitude
19,094.302 km
Semi-major axis
25,507.466 km
Eccentricity
0.00137
Inclination
65.7224°
RAAN
325.3428°
Arg. of periapsis
103.8447°
True anomaly
249.8781°
Mean anomaly
250.0259°
Eccentric anomaly
249.95199°
Mean motion
0.53277 °/min
Orbital period
675.71 mins
BSTAR
0
Loading maneuver chart data...
Computing Atmospheric mass density...
Loading historical data...
Loading historical data...
Loading historical data...
Loading historical data...
Loading historical data...
Loading historical data...
Loading historical data...

Documentation

Showing up to 5 results
|